FW6908 Weather Reports


time (UTC)temp
F
wind
direction
speed
knots
gust
knots
rain 1hr
in
rain 24hr
in
rain mn
in
humidity
%
barometer
mb
20260510040008 59 55 3.5 6.1 0.00 0.00 0.00 78 1016.5
20260510035506 59 11 2.6 5.2 0.00 0.00 0.00 78 1016.5
20260510035005 58 46 2.6 5.2 0.00 0.00 0.00 78 1016.5
20260510034504 58 19 2.6 5.2 0.00 0.00 0.00 78 1016.4
20260510034003 58 24 2.6 5.2 0.00 0.00 0.00 78 1016.3
20260510033501 59 19 2.6 3.5 0.00 0.00 0.00 77 1016.3
20260510033001 59 43 0.9 2.6 0.00 0.00 0.00 77 1016.3
20260510032601 59 52 0.9 1.7 0.00 0.00 0.00 76 1016.2
20260510032104 59 58 0.9 2.6 0.00 0.00 0.00 76 1016.2
20260510031601 59 59 0.9 2.6 0.00 0.00 0.00 76 1016.3
20260510031059 59 56 0.0 2.6 0.00 0.00 0.00 76 1016.3
20260510030558 59 42 0.9 3.5 0.00 0.00 0.00 76 1016.3
20260510030058 59 38 1.7 3.5 0.00 0.00 0.00 75 1016.4
20260510025558 60 57 0.9 2.6 0.00 0.00 0.00 76 1016.2
20260510025058 59 57 0.0 1.7 0.00 0.00 0.00 75 1016.2
20260510024602 60 56 0.0 2.6 0.00 0.00 0.00 76 1016.1
20260510024057 59 55 0.9 2.6 0.00 0.00 0.00 76 1016.2
20260510023557 59 48 1.7 4.3 0.00 0.00 0.00 76 1016.1
20260510023057 59 63 1.7 5.2 0.00 0.00 0.00 77 1016.0
20260510022556 59 59 3.5 7.0 0.00 0.00 0.00 77 1016.1
20260510022056 59 41 4.3 7.0 0.00 0.00 0.00 77 1016.2
20260510021556 59 20 1.7 3.5 0.00 0.00 0.00 77 1016.2
20260510021057 58 38 1.7 4.3 0.00 0.00 0.00 77 1016.2
20260510020555 58 53 2.6 4.3 0.00 0.00 0.00 77 1016.0
20260510020054 59 42 1.7 3.5 0.00 0.00 0.00 76 1016.0
20260510015554 59 57 1.7 4.3 0.00 0.00 0.00 76 1016.0
20260510015052 59 57 2.6 4.3 0.00 0.00 0.00 76 1016.0
20260510014552 59 41 2.6 3.5 0.00 0.00 0.00 75 1016.1
20260510014052 60 44 0.9 4.3 0.00 0.00 0.00 74 1016.1
20260510013553 60 50 2.6 4.3 0.00 0.00 0.00 74 1016.0
20260510013054 60 30 2.6 4.3 0.00 0.00 0.00 73 1016.0
20260510012551 59 63 2.6 5.2 0.00 0.00 0.00 75 1016.0
20260510012050 59 32 2.6 5.2 0.00 0.00 0.00 75 1016.0
20260510011555 59 22 3.5 4.3 0.00 0.00 0.00 75 1016.1
20260510011050 59 38 2.6 4.3 0.00 0.00 0.00 75 1016.1
20260510010551 59 21 2.6 5.2 0.00 0.00 0.00 74 1016.0
20260510010050 59 13 2.6 5.2 0.00 0.00 0.00 74 1016.0
20260510005548 59 48 3.5 4.3 0.00 0.00 0.00 74 1015.8
20260510005047 60 26 2.6 5.2 0.00 0.00 0.00 73 1015.8
20260510004550 60 30 4.3 5.2 0.00 0.00 0.00 73 1015.8
20260510004046 60 26 2.6 4.3 0.00 0.00 0.00 73 1015.8
20260510003545 60 46 1.7 3.5 0.00 0.00 0.00 74 1015.7
20260510003103 60 45 1.7 3.5 0.00 0.00 0.00 74 1015.7
20260510002543 60 46 1.7 2.6 0.00 0.00 0.00 73 1015.8
20260510002043 60 50 1.7 3.5 0.00 0.00 0.00 74 1015.9
20260510001543 60 44 1.7 3.5 0.00 0.00 0.00 73 1015.8
20260510001042 60 42 1.7 3.5 0.00 0.00 0.00 73 1015.9
20260510000542 61 43 0.9 3.5 0.00 0.00 0.00 72 1015.9
20260510000046 61 44 1.7 4.3 0.00 0.00 0.00 72 1016.0
20260509235541 61 42 1.7 6.1 0.00 0.00 0.00 72 1016.0
20260509235041 60 51 1.7 6.1 0.00 0.00 0.00 73 1015.9
20260509234558 60 22 3.5 5.2 0.00 0.00 0.00 73 1016.0
20260509234040 60 23 3.5 4.3 0.00 0.00 0.00 73 1016.1
20260509233538 60 37 1.7 4.3 0.00 0.00 0.00 73 1016.1
20260509233041 61 21 1.7 3.5 0.00 0.00 0.00 72 1016.1
20260509232536 61 14 1.7 3.5 0.00 0.00 0.00 71 1016.1
20260509232036 62 44 0.9 4.3 0.00 0.00 0.00 71 1016.1
20260509231547 62 44 2.6 4.3 0.00 0.00 0.00 70 1016.2
20260509231034 62 40 2.6 7.0 0.00 0.00 0.00 70 1016.1
20260509230534 61 57 3.5 7.0 0.00 0.00 0.00 70 1016.2
20260509230036 62 350 3.5 6.1 0.00 0.00 0.00 70 1016.3
20260509225534 62 13 4.3 6.1 0.00 0.00 0.00 69 1016.2
20260509225033 62 59 0.0 3.5 0.00 0.00 0.00 69 1016.3
20260509224535 63 19 2.6 4.3 0.00 0.00 0.00 68 1016.3
20260509224033 63 30 1.7 5.2 0.00 0.00 0.00 68 1016.3
20260509223533 62 20 2.6 7.0 0.00 0.00 0.00 70 1016.4
20260509223034 62 36 4.3 7.0 0.00 0.00 0.00 70 1016.4
20260509222531 62 14 4.3 6.1 0.00 0.00 0.00 70 1016.5
20260509222035 62 35 0.9 3.5 0.00 0.00 0.00 70 1016.4
20260509221531 62 15 0.9 3.5 0.00 0.00 0.00 70 1016.5
20260509221032 62 21 0.9 2.6 0.00 0.00 0.00 71 1016.5
20260509220531 62 41 0.9 3.5 0.00 0.00 0.00 71 1016.4
20260509220030 62 40 0.9 3.5 0.00 0.00 0.00 72 1016.5
20260509215530 61 42 1.7 4.3 0.00 0.00 0.00 72 1016.5
20260509215030 61 15 1.7 5.2 0.00 0.00 0.00 72 1016.5
20260509214528 62 15 0.9 3.5 0.00 0.00 0.00 71 1016.5
20260509214027 62 11 0.9 3.5 0.00 0.00 0.00 70 1016.5
20260509213527 63 10 1.7 5.2 0.00 0.00 0.00 69 1016.6
20260509213027 62 74 1.7 5.2 0.00 0.00 0.00 70 1016.4
20260509212528 62 64 2.6 5.2 0.00 0.00 0.00 70 1016.5
20260509212027 62 31 3.5 8.7 0.00 0.00 0.00 70 1016.5
20260509211524 62 50 4.3 8.7 0.00 0.00 0.00 70 1016.5
20260509211023 63 10 3.5 5.2 0.00 0.00 0.00 69 1016.4
20260509210521 63 25 1.7 4.3 0.00 0.00 0.00 68 1016.4
20260509210023 64 11 2.6 4.3 0.00 0.00 0.00 68 1016.4
20260509205521 64 18 0.9 3.5 0.00 0.00 0.00 68 1016.3
20260509205021 64 35 1.7 3.5 0.00 0.00 0.00 68 1016.4
20260509204520 64 13 1.7 3.5 0.00 0.00 0.00 68 1016.4
20260509204021 64 30 1.7 3.5 0.00 0.00 0.00 67 1016.4
20260509203520 64 58 0.9 4.3 0.00 0.00 0.00 67 1016.3
20260509203023 64 49 2.6 5.2 0.00 0.00 0.00 68 1016.4
20260509202520 64 40 2.6 5.2 0.00 0.00 0.00 68 1016.4
20260509202022 64 42 0.0 3.5 0.00 0.00 0.00 68 1016.4
20260509201521 64 19 2.6 3.5 0.00 0.00 0.00 68 1016.4
20260509201021 65 14 2.6 4.3 0.00 0.00 0.00 67 1016.4
20260509200522 65 21 1.7 5.2 0.00 0.00 0.00 67 1016.4
20260509200022 65 61 2.6 7.0 0.00 0.00 0.00 67 1016.4
20260509195621 65 56 3.5 7.0 0.00 0.00 0.00 68 1016.4
20260509195018 66 16 2.6 4.3 0.00 0.00 0.00 67 1016.3
20260509194523 67 321 0.9 2.6 0.00 0.00 0.00 67 1016.1
20260509194018 67 234 0.9 1.7 0.00 0.00 0.00 67 1016.1
20260509193519 67 232 0.0 1.7 0.00 0.00 0.00 67 1016.1
20260509193019 67 202 0.0 1.7 0.00 0.00 0.00 67 1016.1
20260509192518 67 190 0.0 1.7 0.00 0.00 0.00 67 1016.2
20260509192017 67 189 0.0 0.0 0.00 0.00 0.00 67 1016.1
20260509191518 67 189 0.0 0.0 0.00 0.00 0.00 67 1016.2
20260509191017 67 189 0.0 0.0 0.00 0.00 0.00 67 1016.2
20260509190517 67 189 0.0 1.7 0.00 0.00 0.00 67 1016.3
20260509190019 67 189 0.0 1.7 0.00 0.00 0.00 67 1016.2
20260509185517 67 191 0.9 1.7 0.00 0.00 0.00 67 1016.1
20260509185017 67 191 0.9 2.6 0.00 0.00 0.00 67 1016.2
20260509184517 67 191 0.0 2.6 0.00 0.00 0.00 67 1016.2
20260509184016 67 191 0.9 5.2 0.00 0.00 0.00 66 1016.2
20260509183517 67 192 1.7 6.1 0.00 0.00 0.00 66 1016.1
20260509183023 68 180 1.7 4.3 0.00 0.00 0.00 66 1016.0
20260509182515 68 259 2.6 6.1 0.00 0.00 0.00 65 1016.1
20260509182015 68 238 3.5 6.1 0.00 0.00 0.00 65 1016.0
20260509181515 68 245 2.6 6.1 0.00 0.00 0.00 65 1016.0
20260509181015 68 259 3.5 6.1 0.00 0.00 0.00 65 1015.9
20260509180518 68 263 3.5 7.8 0.00 0.00 0.00 64 1015.8
20260509180015 68 269 5.2 7.8 0.00 0.00 0.00 64 1015.7
20260509175514 68 259 4.3 7.0 0.00 0.00 0.00 63 1015.6
20260509175014 68 271 4.3 7.0 0.00 0.00 0.00 63 1015.5
20260509174515 68 257 4.3 7.8 0.00 0.00 0.00 63 1015.5
20260509174015 68 277 5.2 9.6 0.00 0.00 0.00 63 1015.4
20260509173514 68 284 6.1 9.6 0.00 0.00 0.00 62 1015.4
20260509173022 68 269 4.3 8.7 0.00 0.00 0.00 62 1015.3
20260509172513 68 258 5.2 8.7 0.00 0.00 0.00 61 1015.2
20260509172013 68 264 6.1 10.4 0.00 0.00 0.00 60 1015.2
20260509171513 69 240 7.0 10.4 0.00 0.00 0.00 60 1015.2
20260509171013 69 247 7.0 10.4 0.00 0.00 0.00 60 1015.2
20260509170512 69 285 6.1 10.4 0.00 0.00 0.00 59 1015.2
20260509170013 69 259 6.1 10.4 0.00 0.00 0.00 58 1015.3
20260509165512 69 268 7.0 9.6 0.00 0.00 0.00 57 1015.3
20260509165014 69 254 6.1 10.4 0.00 0.00 0.00 58 1015.3
20260509164512 69 259 7.0 12.2 0.00 0.00 0.00 57 1015.0
20260509164011 70 264 7.8 12.2 0.00 0.00 0.00 56 1015.0
20260509163515 70 263 8.7 12.2 0.00 0.00 0.00 56 1015.2
20260509163011 70 264 7.0 12.2 0.00 0.00 0.00 55 1015.2
20260509162511 70 270 7.0 11.3 0.00 0.00 0.00 54 1015.2
20260509162013 70 247 7.0 11.3 0.00 0.00 0.00 53 1015.1
20260509161511 71 261 7.0 11.3 0.00 0.00 0.00 53 1015.1
20260509161010 71 248 7.8 12.2 0.00 0.00 0.00 52 1015.0
20260509160513 71 261 9.6 12.2 0.00 0.00 0.00 52 1015.1
20260509160010 71 238 8.7 12.2 0.00 0.00 0.00 51 1015.0
20260509155507 72 255 7.8 11.3 0.00 0.00 0.00 51 1014.8
20260509155007 72 262 8.7 11.3 0.00 0.00 0.00 50 1014.8
20260509154505 72 275 7.8 13.9 0.00 0.00 0.00 50 1014.9
20260509154007 72 283 10.4 13.9 0.00 0.00 0.00 49 1015.1
20260509153501 73 252 7.0 13.0 0.00 0.00 0.00 48 1014.9
20260509153001 72 293 9.6 13.9 0.00 0.00 0.00 47 1014.9
20260509152600 73 262 8.7 14.8 0.00 0.00 0.00 47 1014.8
20260509152059 73 264 10.4 14.8 0.00 0.00 0.00 46 1014.8
20260509151559 73 244 7.8 13.0 0.00 0.00 0.00 45 1014.8
20260509151058 74 260 7.8 13.0 0.00 0.00 0.00 44 1014.8
20260509150557 74 234 7.0 13.0 0.00 0.00 0.00 40 1014.7
20260509150056 74 271 7.8 12.2 0.00 0.00 0.00 42 1014.8
20260509145555 75 232 6.1 11.3 0.00 0.00 0.00 40 1014.8
20260509145055 74 241 7.8 12.2 0.00 0.00 0.00 41 1014.8
20260509144554 75 251 8.7 12.2 0.00 0.00 0.00 41 1014.9
20260509144054 75 251 7.8 11.3 0.00 0.00 0.00 39 1014.9
20260509143553 75 219 7.0 11.3 0.00 0.00 0.00 38 1014.9
20260509143053 75 243 6.1 11.3 0.00 0.00 0.00 38 1014.8
20260509142552 74 233 7.8 13.9 0.00 0.00 0.00 39 1014.9
20260509142051 75 207 7.0 13.0 0.00 0.00 0.00 37 1014.8
20260509141554 75 255 8.7 13.0 0.00 0.00 0.00 37 1014.9
20260509141050 76 259 7.8 12.2 0.00 0.00 0.00 36 1015.0
20260509140548 76 225 6.1 12.2 0.00 0.00 0.00 36 1015.0
20260509140055 76 171 4.3 12.2 0.00 0.00 0.00 35 1015.0
20260509135547 75 221 8.7 16.5 0.00 0.00 0.00 37 1014.9
20260509135046 76 252 9.6 14.8 0.00 0.00 0.00 37 1015.0
20260509134648 76 243 7.0 12.2 0.00 0.00 0.00 37 1015.0
20260509134044 76 195 4.3 12.2 0.00 0.00 0.00 37 1015.1
20260509133543 75 270 9.6 13.9 0.00 0.00 0.00 37 1015.2
20260509133042 75 260 9.6 13.9 0.00 0.00 0.00 38 1015.1
20260509132545 76 270 9.6 13.0 0.00 0.00 0.00 37 1015.2
20260509132043 76 202 6.1 11.3 0.00 0.00 0.00 37 1015.1
20260509131540 76 218 7.0 13.9 0.00 0.00 0.00 37 1015.2
20260509131039 76 165 5.2 13.9 0.00 0.00 0.00 39 1015.2
20260509130540 76 234 8.7 14.8 0.00 0.00 0.00 39 1015.3
20260509130038 76 218 9.6 14.8 0.00 0.00 0.00 38 1015.3
20260509125536 76 249 8.7 12.2 0.00 0.00 0.00 38 1015.4
20260509125038 76 205 6.1 13.9 0.00 0.00 0.00 38 1015.4
20260509124536 76 267 9.6 14.8 0.00 0.00 0.00 39 1015.6
20260509124035 77 252 7.0 15.6 0.00 0.00 0.00 38 1015.6
20260509123537 76 180 7.8 15.6 0.00 0.00 0.00 38 1015.6
20260509123034 76 219 5.2 12.2 0.00 0.00 0.00 39 1015.7
20260509122532 76 252 7.8 13.0 0.00 0.00 0.00 39 1015.6
20260509122032 76 217 9.6 13.9 0.00 0.00 0.00 38 1015.7
20260509121536 76 234 8.7 15.6 0.00 0.00 0.00 39 1015.7
20260509121031 75 259 11.3 15.6 0.00 0.00 0.00 39 1015.7
20260509120531 76 225 8.7 18.2 0.00 0.00 0.00 39 1015.7
20260509120030 76 257 8.7 17.4 0.00 0.00 0.00 39 1015.6
20260509115528 76 223 9.6 17.4 0.00 0.00 0.00 41 1015.6
20260509115028 75 278 12.2 17.4 0.00 0.00 0.00 41 1015.6
20260509114529 75 238 11.3 17.4 0.00 0.00 0.00 42 1015.6
20260509114028 76 224 9.6 18.2 0.00 0.00 0.00 42 1015.6
20260509113527 75 210 12.2 18.2 0.00 0.00 0.00 41 1015.8
20260509113028 75 174 7.8 15.6 0.00 0.00 0.00 41 1015.8
20260509112525 75 236 9.6 14.8 0.00 0.00 0.00 43 1015.8
20260509112126 75 228 11.3 17.4 0.00 0.00 0.00 41 1016.0
20260509111524 75 221 9.6 17.4 0.00 0.00 0.00 41 1015.9
20260509111025 75 221 10.4 17.4 0.00 0.00 0.00 42 1016.0
20260509110524 75 289 11.3 15.6 0.00 0.00 0.00 42 1015.9
20260509110025 75 271 8.7 14.8 0.00 0.00 0.00 43 1016.0
20260509105526 75 223 6.1 16.5 0.00 0.00 0.00 43 1016.0
20260509105024 75 208 9.6 16.5 0.00 0.00 0.00 43 1016.0
20260509104534 75 238 8.7 13.9 0.00 0.00 0.00 43 1016.0
20260509104021 75 203 8.7 13.9 0.00 0.00 0.00 43 1016.0
20260509103521 75 211 9.6 14.8 0.00 0.00 0.00 43 1016.0
20260509103021 75 205 7.0 20.0 0.00 0.00 0.00 43 1016.0
20260509102520 75 192 10.4 20.0 0.00 0.00 0.00 40 1016.0
20260509102019 75 254 9.6 15.6 0.00 0.00 0.00 40 1016.0
20260509101519 76 219 8.7 15.6 0.00 0.00 0.00 37 1016.1
20260509101021 76 217 7.8 14.8 0.00 0.00 0.00 38 1016.1
20260509100517 75 189 9.6 14.8 0.00 0.00 0.00 37 1016.2
20260509100017 76 215 9.6 16.5 0.00 0.00 0.00 37 1016.2
20260509095516 76 194 8.7 16.5 0.00 0.00 0.00 38 1016.3
20260509095014 75 216 9.6 16.5 0.00 0.00 0.00 39 1016.4
20260509094513 75 252 11.3 14.8 0.00 0.00 0.00 39 1016.4
20260509094012 75 265 9.6 13.0 0.00 0.00 0.00 40 1016.5
20260509093515 76 237 7.8 12.2 0.00 0.00 0.00 40 1016.6
20260509093010 75 221 4.3 12.2 0.00 0.00 0.00 41 1016.5
20260509092508 75 237 7.0 13.0 0.00 0.00 0.00 43 1016.5
20260509092008 75 269 4.3 13.0 0.00 0.00 0.00 45 1016.5
20260509091507 75 254 4.3 11.3 0.00 0.00 0.00 44 1016.4
20260509091008 75 231 6.1 12.2 0.00 0.00 0.00 44 1016.6
20260509090507 74 257 8.7 12.2 0.00 0.00 0.00 45 1016.6
20260509090006 75 246 5.2 10.4 0.00 0.00 0.00 43 1016.7
20260509085504 75 273 6.1 10.4 0.00 0.00 0.00 42 1016.7
20260509085003 75 268 7.8 11.3 0.00 0.00 0.00 41 1016.6
20260509084504 75 186 4.3 9.6 0.00 0.00 0.00 41 1016.6
20260509084001 75 215 3.5 11.3 0.00 0.00 0.00 41 1016.6
20260509083559 74 273 4.3 11.3 0.00 0.00 0.00 41 1016.7
20260509083106 73 243 7.0 9.6 0.00 0.00 0.00 42 1016.7
20260509082558 73 268 7.0 10.4 0.00 0.00 0.00 42 1016.8
20260509082057 73 182 5.2 10.4 0.00 0.00 0.00 43 1016.8
20260509081556 73 275 5.2 9.6 0.00 0.00 0.00 47 1016.8
20260509081055 73 236 4.3 8.7 0.00 0.00 0.00 50 1016.9
20260509080552 73 260 3.5 8.7 0.00 0.00 0.00 52 1016.8
20260509080057 72 240 5.2 8.7 0.00 0.00 0.00 53 1016.7
20260509075552 72 219 3.5 9.6 0.00 0.00 0.00 51 1016.7
20260509075051 72 217 4.3 9.6 0.00 0.00 0.00 50 1016.7
20260509074549 71 252 5.2 8.7 0.00 0.00 0.00 54 1016.7
20260509074049 71 207 2.6 7.0 0.00 0.00 0.00 53 1016.8
20260509073547 71 277 4.3 7.0 0.00 0.00 0.00 54 1016.7
20260509073046 71 244 2.6 6.1 0.00 0.00 0.00 54 1016.8
20260509072548 70 200 1.7 7.0 0.00 0.00 0.00 55 1016.9
20260509072040 70 230 1.7 7.0 0.00 0.00 0.00 54 1016.8
20260509071538 70 255 2.6 5.2 0.00 0.00 0.00 56 1016.8
20260509071037 70 292 2.6 4.3 0.00 0.00 0.00 56 1016.9
20260509070537 70 258 0.9 5.2 0.00 0.00 0.00 56 1016.8
20260509070040 70 269 2.6 5.2 0.00 0.00 0.00 57 1016.9
20260509065536 69 276 1.7 3.5 0.00 0.00 0.00 58 1016.8
20260509065035 70 315 0.0 2.6 0.00 0.00 0.00 59 1016.9
20260509064535 69 317 0.9 2.6 0.00 0.00 0.00 59 1016.8
20260509064033 70 331 0.9 2.6 0.00 0.00 0.00 62 1016.9
20260509063534 69 318 0.9 3.5 0.00 0.00 0.00 62 1016.9
20260509063031 67 266 0.0 5.2 0.00 0.00 0.00 66 1016.7
20260509062530 67 277 1.7 5.2 0.00 0.00 0.00 67 1016.8
20260509062032 67 282 0.9 3.5 0.00 0.00 0.00 67 1016.8
20260509061529 66 272 0.9 3.5 0.00 0.00 0.00 68 1016.8
20260509061031 66 248 0.9 3.5 0.00 0.00 0.00 69 1016.9
20260509060528 66 319 1.7 3.5 0.00 0.00 0.00 69 1016.8
20260509060028 66 329 0.9 4.3 0.00 0.00 0.00 70 1016.8
20260509055529 65 355 0.9 3.5 0.00 0.00 0.00 70 1016.8
20260509055026 65 313 0.9 2.6 0.00 0.00 0.00 71 1016.7
20260509054529 65 350 1.7 2.6 0.00 0.00 0.00 71 1016.8
20260509054025 64 337 0.9 2.6 0.00 0.00 0.00 71 1016.8
20260509053525 64 330 1.7 2.6 0.00 0.00 0.00 70 1016.7
20260509053035 64 294 0.9 2.6 0.00 0.00 0.00 70 1016.7
20260509052525 64 182 0.9 2.6 0.00 0.00 0.00 71 1016.7
20260509052023 64 201 0.0 1.7 0.00 0.00 0.00 71 1016.8
20260509051534 64 250 0.0 1.7 0.00 0.00 0.00 69 1016.8
20260509051021 64 213 0.9 2.6 0.00 0.00 0.00 69 1016.9
20260509050520 64 211 0.0 2.6 0.00 0.00 0.00 69 1016.9
20260509050020 63 213 0.0 1.7 0.00 0.00 0.00 69 1017.0
20260509045519 63 255 0.0 1.7 0.00 0.00 0.00 70 1017.0
20260509045020 63 264 0.0 3.5 0.00 0.00 0.00 70 1017.0
20260509044518 63 269 0.0 3.5 0.00 0.00 0.00 70 1017.0
20260509044017 62 351 0.0 2.6 0.00 0.00 0.00 70 1017.0
20260509043519 62 355 0.9 2.6 0.00 0.00 0.00 70 1017.0
20260509043017 63 333 0.9 2.6 0.00 0.00 0.00 69 1016.9
20260509042517 63 107 0.0 1.7 0.00 0.00 0.00 69 1016.9
20260509042018 62 103 0.0 2.6 0.00 0.00 0.00 70 1016.9
20260509041517 62 96 0.0 3.5 0.00 0.00 0.00 70 1016.9
20260509041016 61 81 1.7 4.3 0.00 0.00 0.00 71 1016.9
20260509040516 61 46 1.7 4.3 0.00 0.00 0.00 72 1017.0